Boone, IA

2:02 PM CDT on September 29, 2016 (GMT -0500)
Boone Municipal

Weather History for KBNW - August, 2013

Change the Weather History Date:

Sunday, August 4, 2013

  Actual Average Record
Temperature  
Mean Temperature 66 °F -  
Max Temperature 79 °F 82 °F 100 °F (1988)
Min Temperature 54 °F 59 °F 44 °F (1978)
Cooling Degree Days 1    
Growing Degree Days 16 (Base 50)    
Moisture  
Dew Point 54 °F    
Average Humidity 62    
Maximum Humidity 88    
Minimum Humidity 40    
Precipitation  
Precipitation 0.00 in - - ()
Sea Level Pressure  
Sea Level Pressure 30.16 in    
Wind  
Wind Speed 5 mph (ESE)    
Max Wind Speed 10 mph    
Max Gust Speed 16 mph    
Visibility 10 miles    
Events      
Averages and records for this station are not official NWS values.
T = Trace of Precipitation, MM = Missing Value Source: NWS Daily Summary

Daily Weather History Graph

Daily Weather History Graph

Search for Another Location

Airport or City:

Trip Planner

Search our weather history database for the weather conditions in past years. The results will help you decide how hot, cold, wet, or windy it might be!

Date:

Astronomy

Aug. 04, 2013 Rise Set
Actual Time 6:12 AM CDT 8:30 PM CDT
Civil Twilight 5:40 AM CDT 9:01 PM CDT
Nautical Twilight 5:02 AM CDT 9:39 PM CDT
Astronomical Twilight 4:19 AM CDT 10:22 PM CDT
Moon 4:13 AM CDT (8/4) 6:53 PM CDT (8/4)
Length of Visible Light 15h 20m
Length of Day
14h 18m
Waning Crescent, 4% of the Moon is Illuminated
Aug 4
Waning Crescent
Aug 6
New
Aug 14
First Quarter
Aug 20
Full
Aug 28
Last Quarter

Hourly Weather History & Observations

Time (CDT) Temp. Dew Point Humidity Pressure Visibility Wind Dir Wind Speed Gust Speed Precip Events Conditions
12:15 AM 61.7 °F 54.0 °F 76% 30.22 in 10.0 mi NNW 3.5 mph - N/A   Clear
12:35 AM 61.2 °F 53.6 °F 76% 30.23 in 10.0 mi NNW 3.5 mph - N/A   Clear
12:55 AM 60.8 °F 53.6 °F 77% 30.23 in 10.0 mi NNW 3.5 mph - N/A   Clear
1:15 AM 60.8 °F 53.2 °F 76% 30.22 in 10.0 mi North 3.5 mph - N/A   Clear
1:35 AM 59.4 °F 53.1 °F 80% 30.22 in 10.0 mi North 3.5 mph - N/A   Clear
1:55 AM 59.5 °F 52.7 °F 78% 30.21 in 10.0 mi North 4.6 mph - N/A   Clear
2:15 AM 59.0 °F 51.8 °F 77% 30.21 in 10.0 mi North 4.6 mph - N/A   Clear
2:35 AM 59.0 °F 52.3 °F 79% 30.19 in 10.0 mi North 6.9 mph - N/A   Clear
2:55 AM 59.0 °F 52.2 °F 78% 30.18 in 10.0 mi North 8.1 mph - N/A   Clear
3:15 AM 59.0 °F 52.7 °F 80% 30.18 in 10.0 mi North 8.1 mph - N/A   Clear
3:35 AM 58.3 °F 52.3 °F 81% 30.19 in 10.0 mi North 4.6 mph - N/A   Clear
3:55 AM 57.4 °F 52.3 °F 83% 30.18 in 10.0 mi NNE 9.2 mph - N/A   Clear
4:15 AM 57.7 °F 52.2 °F 82% 30.19 in 10.0 mi NNE 4.6 mph - N/A   Clear
4:35 AM 56.8 °F 52.2 °F 84% 30.20 in 10.0 mi NNE 3.5 mph - N/A   Clear
4:55 AM 55.9 °F 51.4 °F 85% 30.20 in 10.0 mi Calm Calm - N/A   Clear
5:15 AM 56.1 °F 51.6 °F 85% 30.20 in 10.0 mi Calm Calm - N/A   Clear
5:35 AM 55.4 °F 51.6 °F 87% 30.21 in 10.0 mi Calm Calm - N/A   Clear
5:55 AM 55.0 °F 51.1 °F 86% 30.21 in 10.0 mi Calm Calm - N/A   Clear
6:15 AM 54.9 °F 51.1 °F 87% 30.21 in 10.0 mi Calm Calm - N/A   Clear
6:35 AM 55.4 °F 50.9 °F 85% 30.21 in 10.0 mi East 3.5 mph - N/A   Clear
6:55 AM 54.7 °F 51.3 °F 88% 30.22 in 10.0 mi ENE 3.5 mph - N/A   Clear
7:15 AM 58.5 °F 53.6 °F 84% 30.22 in 10.0 mi ENE 3.5 mph - N/A   Clear
7:35 AM 61.2 °F 54.7 °F 79% 30.22 in 10.0 mi East 3.5 mph - N/A   Clear
7:55 AM 62.2 °F 55.4 °F 78% 30.21 in 10.0 mi East 4.6 mph - N/A   Clear
8:15 AM 63.7 °F 55.0 °F 73% 30.22 in 10.0 mi East 5.8 mph - N/A   Clear
8:35 AM 66.0 °F 54.9 °F 67% 30.23 in 10.0 mi East 6.9 mph - N/A   Clear
8:55 AM 67.1 °F 54.9 °F 65% 30.22 in 10.0 mi East 6.9 mph - N/A   Clear
9:15 AM 68.7 °F 54.1 °F 60% 30.22 in 10.0 mi ESE 8.1 mph - N/A   Clear
9:35 AM 68.9 °F 54.7 °F 60% 30.22 in 10.0 mi ESE 6.9 mph - N/A   Clear
9:55 AM 70.7 °F 55.0 °F 58% 30.21 in 10.0 mi SE 4.6 mph - N/A   Clear
10:15 AM 71.8 °F 55.2 °F 56% 30.21 in 10.0 mi SE 6.9 mph - N/A   Clear
10:35 AM 72.7 °F 54.5 °F 53% 30.21 in 10.0 mi SE 8.1 mph - N/A   Clear
10:55 AM 74.1 °F 54.9 °F 51% 30.21 in 10.0 mi SE 9.2 mph - N/A   Clear
11:15 AM 74.3 °F 54.0 °F 49% 30.21 in 10.0 mi ESE 10.4 mph - N/A   Clear
11:35 AM 75.4 °F 53.8 °F 47% 30.21 in 10.0 mi SE 6.9 mph - N/A   Clear
11:55 AM 76.3 °F 52.2 °F 43% 30.20 in 10.0 mi ESE 10.4 mph 16.1 mph N/A   Clear
12:15 PM 75.9 °F 52.0 °F 43% 30.18 in 10.0 mi SE 10.4 mph - N/A   Clear
12:35 PM 76.3 °F 52.3 °F 43% 30.18 in 10.0 mi SE 9.2 mph - N/A   Clear
12:55 PM 77.0 °F 52.5 °F 42% 30.19 in 10.0 mi SSE 9.2 mph - N/A   Clear
1:15 PM 77.4 °F 52.9 °F 42% 30.19 in 10.0 mi SE 10.4 mph - N/A   Clear
1:35 PM 77.5 °F 53.6 °F 43% 30.19 in 10.0 mi SE 8.1 mph - N/A   Clear
1:55 PM 77.2 °F 52.7 °F 42% 30.18 in 10.0 mi South 6.9 mph - N/A   Scattered Clouds
2:15 PM 77.5 °F 53.8 °F 44% 30.17 in 10.0 mi SE 10.4 mph - N/A   Clear
2:35 PM 76.8 °F 52.2 °F 42% 30.14 in 10.0 mi SE 8.1 mph 16.1 mph N/A   Clear
2:55 PM 76.1 °F 52.7 °F 44% 30.14 in 10.0 mi SE 9.2 mph - N/A   Clear
3:15 PM 76.3 °F 53.2 °F 45% 30.13 in 10.0 mi SE 9.2 mph - N/A   Clear
3:35 PM 77.4 °F 55.4 °F 47% 30.13 in 10.0 mi SSE 6.9 mph - N/A   Clear
3:55 PM 78.8 °F 53.2 °F 41% 30.13 in 10.0 mi SE 6.9 mph - N/A   Clear
4:15 PM 78.3 °F 52.9 °F 41% 30.13 in 10.0 mi SSE 8.1 mph - N/A   Clear
4:35 PM 78.8 °F 52.3 °F 40% 30.11 in 10.0 mi South 8.1 mph - N/A   Clear
4:55 PM 78.4 °F 52.7 °F 41% 30.11 in 10.0 mi SSE 5.8 mph - N/A   Clear
5:15 PM 78.4 °F 53.6 °F 42% 30.11 in 10.0 mi SSE 8.1 mph - N/A   Clear
5:35 PM 78.3 °F 53.4 °F 42% 30.11 in 10.0 mi ESE 9.2 mph - N/A   Clear
5:55 PM 78.1 °F 54.7 °F 44% 30.11 in 10.0 mi SSE 4.6 mph - N/A   Clear
6:15 PM 77.9 °F 54.9 °F 45% 30.10 in 10.0 mi SE 5.8 mph - N/A   Clear
6:35 PM 77.2 °F 55.0 °F 46% 30.09 in 10.0 mi SE 6.9 mph - N/A   Clear
6:55 PM 76.5 °F 54.9 °F 47% 30.09 in 10.0 mi SE 5.8 mph - N/A   Clear
7:15 PM 75.7 °F 55.6 °F 49% 30.09 in 10.0 mi SE 9.2 mph - N/A   Clear
7:35 PM 75.0 °F 55.4 °F 50% 30.09 in 10.0 mi ESE 8.1 mph - N/A   Clear
7:55 PM 73.4 °F 56.7 °F 56% 30.09 in 10.0 mi ESE 5.8 mph - N/A   Clear
8:15 PM 71.2 °F 56.7 °F 60% 30.09 in 10.0 mi ESE 6.9 mph - N/A   Clear
8:35 PM 69.4 °F 57.2 °F 65% 30.09 in 10.0 mi ESE 5.8 mph - N/A   Clear
8:55 PM 68.4 °F 57.0 °F 67% 30.09 in 10.0 mi ESE 5.8 mph - N/A   Clear
9:15 PM 68.0 °F 56.5 °F 67% 30.08 in 10.0 mi ESE 6.9 mph - N/A   Clear
9:35 PM 68.9 °F 55.9 °F 63% 30.08 in 10.0 mi ESE 8.1 mph - N/A   Scattered Clouds
9:55 PM 68.5 °F 55.9 °F 64% 30.09 in 7.0 mi SE 9.2 mph - N/A   Mostly Cloudy
10:15 PM 67.6 °F 56.3 °F 67% 30.09 in 10.0 mi SE 6.9 mph - N/A   Scattered Clouds
10:35 PM 67.1 °F 56.3 °F 68% 30.09 in 10.0 mi SE 6.9 mph - N/A   Scattered Clouds
10:55 PM 66.4 °F 56.3 °F 70% 30.09 in 10.0 mi SE 6.9 mph - N/A   Scattered Clouds
11:15 PM 66.2 °F 56.3 °F 70% 30.08 in 10.0 mi SE 8.1 mph - N/A   Clear
11:35 PM 66.2 °F 56.3 °F 70% 30.08 in 10.0 mi SE 8.1 mph - N/A   Clear
11:55 PM 64.8 °F 56.8 °F 75% 30.07 in 10.0 mi SE 6.9 mph - N/A   Clear